カタログに戻る

SAKURA 1A

CS-1A

運用中通信GEO
NORAD 10516·PAYLOAD·🇯🇵 Japan

打ち上げ Dec 15, 1977 から Cape Canaveral Space Force Station

Loading…

TLE

最新Source: Space-Track

元期: Sep 13, 2026, 22:17 UTC

1 10516U 77118A   26256.92890943 -.00000248  00000-0  00000+0 0  9996
2 10516   7.1792 296.3979 0001179 250.2239 117.0673  0.98916938136476

AllMySatでSAKURA 1Aをリアルタイム追跡

Download on the App Store